Location: Anvin
(50.4464°N, 2.2539°E)
Time: 06:41:23
(UTC+00:00)

Daily predictions for brighter satellites

Satellite Brightness Start Highest point End
(mag) Time Altitude Azimuth Time Altitude Azimuth Time Altitude Azimuth
BREEZE-M DEB (TANK) 4.4 16:07:02 10° W 16:10:57 76° N 16:27:08 10° E
Cosmos 2221 2.9 16:24:34 10° SSE 16:28:41 44° E 16:32:50 10° NNE
SL-08 R/B 4.0 16:25:05 10° N 16:29:58 60° WNW 16:34:44 10° SSW
H-2A R/B 2.7 16:27:54 10° SSE 16:31:43 83° E 16:35:37 10° NNW
Abrixas rocket 3.6 16:29:31 10° W 16:32:02 31° SSW 16:34:33 10° SE
Cosmos 1500 Rocket 3.7 16:27:49 10° N 16:32:05 50° ENE 16:36:23 10° SSE
Cosmos 1570 Rocket 4.1 16:27:23 10° S 16:32:38 67° ESE 16:37:53 10° NNE
YAOGAN 6 2.7 16:33:01 10° SSE 16:36:35 53° ENE 16:40:08 10° N
NOSS 2-1 (C) 4.3 16:33:04 10° NW 16:37:56 85° SW 16:44:48 10° SE
CZ-4C R/B 3.4 16:34:35 10° NNE 16:38:07 48° E 16:41:38 10° S
Cosmos 2333 4.4 16:33:05 10° SSW 16:38:47 80° WNW 16:44:27 10° NNE
Cosmos 405 Rocket 2.8 16:36:32 10° N 16:40:21 54° ENE 16:44:13 10° SSE
ADEOS Rocket 3.6 16:35:26 10° NNE 16:43:04 75° ESE 16:50:52 10° S
NOSS 2-1 (D) 4.4 16:38:31 10° NW 16:43:24 79° SW 16:50:18 10° SE
Cosmos 372 Rocket 4.4 16:39:23 10° NNW 16:44:30 70° WSW 16:49:39 10° SSE
Cosmos 1943 Rocket 3.4 16:41:03 10° NNW 16:45:15 21° NE 16:49:27 10° E
Cosmos 405 2.9 16:43:22 10° S 16:46:49 68° E 16:50:19 10° NNE
YAOGAN 1 4.3 16:45:25 10° E 16:47:16 13° NE 16:49:08 10° NNE
Cosmos 1763 Rocket 4.3 16:42:33 10° SW 16:47:29 49° WNW 16:52:25 10° NNE
Cosmos 389 Rocket 4.2 16:45:38 10° SE 16:47:40 15° E 16:49:22 11° ENE
Cosmos 44 4.3 16:43:51 10° NNW 16:48:30 32° NNE 16:53:18 10° E
BREEZE-M DEB (TANK) 3.1 16:49:18 10° SW 16:51:19 26° SSE 16:53:03 11° E
H-2A R/B 2.6 16:47:30 10° SSE 16:51:51 86° WSW 16:56:04 10° NNW
Cosmos 2322 Rocket 3.8 16:47:06 10° WSW 16:51:57 28° NW 16:56:50 10° NNE
USA 215 4.1 16:47:55 10° ENE 16:53:46 34° SE 16:59:35 10° SSW
Cosmos 1743 Rocket 3.6 16:49:58 10° N 16:54:29 84° E 16:58:57 10° S
SL-16 R/B 3.8 16:51:31 10° SE 16:54:36 15° E 16:56:52 12° ENE
COSMO-SKYMED 1 4.1 16:52:06 10° NE 16:54:50 16° E 16:57:37 10° SE
Cosmos 2298 Rocket 4.1 16:50:48 10° NNW 16:56:09 88° WSW 17:01:28 10° SSE
NOAA 6 4.3 16:51:19 10° S 16:56:29 77° WSW 17:01:39 10° NNW
CZ-2C R/B 4.2 16:53:44 10° ESE 16:57:21 20° ENE 17:00:52 10° NNE
Cosmos 2150 Rocket 4.0 16:52:21 10° NNW 16:57:34 89° ENE 17:02:43 10° SSE
Okean-O 4.0 16:55:33 10° ESE 16:58:35 18° ENE 17:01:37 10° NNE
Cosmos 1818 3.6 16:53:26 10° NW 16:58:57 88° SW 17:04:25 10° SE
PAYLOAD B 4.4 16:53:48 10° SSE 16:59:24 80° WSW 17:05:01 10° NNW
Cosmos 1900 4.5 16:56:24 10° SSW 17:01:28 70° SE 17:06:28 11° NE
AQUARIUS 4.1 16:58:04 10° SSE 17:02:32 69° ENE 17:07:01 10° N
Sich 1 3.4 16:59:22 10° N 17:03:35 42° ENE 17:07:44 10° SE
Cosmos 1606 3.6 17:01:52 10° SSE 17:05:14 28° E 17:08:37 10° NNE
Cosmos 1842 Rocket 3.9 17:05:08 10° SSW 17:09:26 68° WNW 17:13:47 10° N
Okean O Rocket 1.5 17:05:11 10° SSE 17:09:32 81° ENE 17:13:56 10° NNW
Cosmos 2333 Rocket 2.6 17:03:57 10° SW 17:09:35 63° WNW 17:15:15 10° NNE
Helios 1A Rocket 4.1 17:08:09 10° ESE 17:11:08 20° ENE 17:14:09 10° NNE
ISS -2.6 17:08:39 10° SSW 17:11:41 32° SSE 17:13:33 18° E
Radarsat Rocket 4.5 17:06:17 10° S 17:12:15 71° WSW 17:18:55 10° NNW
Cosmos 1125 Rocket 3.4 17:07:08 10° NNW 17:12:22 85° ENE 17:17:36 10° SSE
Nadezhda 1 Rocket 4.0 17:06:32 10° S 17:12:50 76° E 17:19:15 10° NNE
Cosmos 1356 3.8 17:10:06 10° N 17:13:22 39° ENE 17:16:36 10° SE
Cosmos 1805 Rocket 3.5 17:10:06 10° N 17:14:35 70° E 17:19:00 10° SSE
COSMOS 2428 3.0 17:09:20 10° SW 17:15:04 72° WNW 17:20:50 10° NNE
Cosmos 2208 Rocket 4.3 17:12:09 10° SSW 17:17:25 69° WNW 17:22:47 10° NNE
Feng Yun 1-1 Rocket 4.4 17:11:53 10° SE 17:17:31 55° ENE 17:23:02 10° N
CZ-4B R/B 1.9 17:17:16 22° NE 17:18:40 32° E 17:21:29 10° SSE
Cosmos 2278 Rocket 2.8 17:13:54 10° NW 17:19:32 63° WSW 17:25:07 10° SSE
Cosmos 1666 Rocket 3.9 17:16:33 10° N 17:20:44 41° ENE 17:24:55 10° SE
Cosmos 1151 Rocket 4.1 17:19:10 10° SE 17:22:34 23° E 17:23:25 22° ENE
Cosmos 2154 Rocket 4.2 17:17:28 10° NNW 17:23:49 78° W 17:30:09 10° S
CRYOSAT 2 4.3 17:19:32 10° N 17:24:28 81° E 17:29:21 10° S
Cosmos 1862 4.1 17:20:41 10° NNW 17:24:39 55° W 17:28:34 10° S
Cosmos 962 Rocket 4.4 17:20:07 10° N 17:26:28 72° ENE 17:32:41 10° SSE
IRS-1C Rocket 4.2 17:21:51 10° SE 17:26:55 50° ENE 17:32:01 10° N
USA 267 3.2 17:22:04 10° ESE 17:28:35 79° NNE 17:35:07 10° WNW
ERS-2 2.4 17:29:46 20° NE 17:32:01 45° E 17:35:33 10° S
Cosmos 482 Debris 3.1 17:30:28 10° WNW 17:31:54 46° NW 17:31:54 46° NW
Cosmos 2341 Rocket 3.9 17:26:31 10° N 17:32:48 72° ENE 17:39:06 10° SSE
Cosmos 2360 Rocket 4.0 17:28:19 10° W 17:32:56 25° NW 17:37:33 10° NNE
Meteor 1-25 Rocket 4.3 17:28:01 10° N 17:33:30 51° ENE 17:38:59 10° SSE
NOSS 0 Rocket 3.9 17:28:45 10° SSW 17:35:00 87° ESE 17:40:49 12° NNE
CZ-2D R/B 3.5 17:32:51 10° SE 17:36:28 43° ENE 17:40:08 10° N
CZ-4 R/B 1.9 17:38:23 26° ESE 17:39:48 34° ENE 17:43:27 10° N
H-2A R/B 2.7 17:36:18 10° N 17:40:21 54° WNW 17:44:27 10° SSW
Cosmos 2219 Rocket 3.2 17:35:18 10° WSW 17:40:41 44° NW 17:46:05 10° NNE
SKYMED 2 3.8 17:40:45 21° NE 17:43:19 45° E 17:47:29 10° S
BREEZE-M DEB (TANK) 3.4 17:41:33 10° SSW 17:43:13 21° SSE 17:43:13 21° SSE
SMAP 4.2 17:38:56 10° S 17:43:25 46° W 17:47:55 10° NNW
USA 81 4.0 17:39:16 10° N 17:44:30 59° E 17:49:43 10° SSE
CZ-4B R/B 4.2 17:39:30 10° S 17:44:40 48° W 17:49:49 10° NNW
CREW DRAGON DEMO-1 DEB 3.0 17:44:07 10° WNW 17:47:05 65° SSW 17:47:44 47° SE
Cosmos 2285 Rocket 4.0 17:41:21 10° NNW 17:47:45 63° ENE 17:54:03 10° SE
SL-16 R/B 4.5 17:46:29 10° WNW 17:49:30 14° NNW 17:52:31 10° N
Cosmos 2237 Rocket 2.1 17:44:19 10° SSW 17:49:57 89° WNW 17:54:26 17° NNE
Cosmos 1633 Rocket 2.9 17:47:08 10° N 17:51:32 68° ENE 17:55:52 10° SSE
Cosmos 1939 Rocket 2.7 17:48:16 10° SSE 17:52:08 88° ENE 17:56:04 10° NNW
H-2A R/B 2.5 17:52:26 22° ESE 17:55:21 40° ENE 18:00:11 10° N
Cosmos 864 Rocket 4.4 17:50:40 10° N 17:56:59 66° ENE 18:03:14 10° SSE
SL-8 Rocket 3.9 17:50:44 10° N 17:56:59 81° E 18:03:16 10° SSE
Cosmos 2369 Rocket 2.7 17:55:51 10° NNW 18:01:12 39° NE 18:02:10 36° ENE
CSL-04 Rocket 3.9 18:01:44 35° ESE 18:03:11 42° ENE 18:08:10 10° N
USA 281 3.1 17:56:44 10° SSE 18:03:17 82° ENE 18:09:54 10° NNW
MOS 1 Rocket 4.0 18:03:47 38° ENE 18:04:38 40° E 18:09:44 10° SSE
Cosmos 2181 Rocket 3.9 17:59:35 10° S 18:06:00 74° E 18:12:22 10° NNE
Cosmos 1959 Rocket 4.4 17:59:40 10° N 18:06:05 79° E 18:12:26 10° SSE
Cosmos 1980 4.0 18:02:33 10° SW 18:08:12 66° WNW 18:12:27 18° NNE
Cosmos 1821 Rocket 4.3 18:04:46 10° N 18:10:36 41° ENE 18:11:28 39° E
Cosmos 1241 Rocket 4.5 18:06:26 10° NW 18:13:05 80° NE 18:17:23 24° SE
Cosmos 389 Rocket 3.7 18:18:46 10° SW 18:22:01 40° WNW 18:23:14 29° NNW
YAOGAN 1 2.4 18:21:23 45° SSE 18:22:40 81° ENE 18:27:01 10° NNW
SL-08 R/B 4.3 18:19:32 10° N 18:25:44 70° ENE 18:31:50 10° SSE
Cosmos 2297 4.0 18:21:07 10° NNW 18:26:46 67° WSW 18:32:24 10° SSE
Cosmos 1470 Rocket 3.4 18:22:34 10° N 18:26:57 88° E 18:27:22 72° SSE
Cosmos 1933 3.7 18:24:30 10° SSW 18:28:30 63° WNW 18:29:42 41° NNW
Cosmos 1943 Rocket 2.0 18:24:16 10° NNW 18:29:51 83° ENE 18:31:41 44° SE
Meteor 1-14 Rocket 4.2 18:24:14 10° N 18:30:10 78° ENE 18:36:09 10° SSE
Cosmos 44 3.7 18:24:57 10° NW 18:30:11 71° SW 18:32:40 32° SSE
COSMO-SKYMED 1 2.9 18:29:20 29° N 18:31:26 64° WNW 18:35:43 10° SSW
Okean-O 2.9 18:30:13 10° S 18:34:37 67° WSW 18:39:03 10° NNW
PSLV R/B 4.2 18:36:53 60° SW 18:36:53 60° SW 18:40:16 10° SSW
CZ-2C R/B 3.1 18:31:40 10° S 18:36:48 71° WSW 18:41:43 10° NNW
SJ-11-01 4.4 18:37:47 65° N 18:37:47 65° N 18:41:53 10° NNW
Cosmos 1867 3.4 18:31:46 10° SW 18:37:13 88° SE 18:37:58 68° NE
USA 215 3.1 18:35:13 48° ENE 18:37:19 88° SSE 18:43:53 10° WSW
SL-16 R/B 2.0 18:32:10 10° SSW 18:37:49 82° ESE 18:38:47 62° NE
ARGOS 3.2 18:38:31 60° NE 18:38:31 60° NE 18:43:16 10° N
Cosmos 2218 Rocket 4.5 18:36:44 10° NNW 18:42:46 58° W 18:48:45 10° S
Meteor 1-26 Rocket 4.3 18:37:07 10° SSW 18:43:09 86° WNW 18:48:00 17° N
Helios 1A Rocket 3.8 18:43:48 23° SSW 18:46:01 48° W 18:49:56 10° NNW
ISS -1.5 18:44:56 10° WSW 18:46:31 26° W 18:46:31 26° W
CZ-4B R/B 4.0 18:50:24 16° WNW 18:50:42 16° WNW 18:52:42 10° WSW
Cosmos 2333 Rocket 4.4 18:51:11 10° WNW 18:55:03 18° NNW 18:58:13 12° N
Cosmos 1151 Rocket 4.2 18:55:51 10° SW 18:59:54 40° WNW 19:00:19 39° WNW
Lacrosse 5 rocket 4.0 19:03:33 10° SW 19:03:47 12° SW 19:03:47 12° SW
NOSS 3-3 (A) 4.5 19:04:28 10° NW 19:11:31 63° NNE 19:11:31 63° NNE
NOSS 3-3 (C) 4.5 19:04:35 10° NW 19:11:36 62° NNE 19:11:36 62° NNE
USA 267 4.1 19:09:08 29° S 19:11:57 43° SW 19:18:08 10° WNW
CZ-4 R/B 3.5 19:14:25 24° WSW 19:14:54 25° W 19:18:14 10° NW
H-2A R/B 3.5 19:33:04 28° SW 19:34:49 36° W 19:39:37 10° NNW
Cosmos 2237 Rocket 4.1 19:30:23 10° W 19:34:49 23° NW 19:36:17 21° NNW
Cosmos 2369 Rocket 3.4 19:39:56 10° NW 19:43:59 38° WNW 19:43:59 38° WNW
Cosmos 1943 Rocket 4.5 20:09:13 10° WNW 20:12:53 18° W 20:13:17 18° WSW
USA 215 4.5 20:22:34 36° WNW 20:22:34 36° WNW 20:26:28 10° W
SL-16 R/B 4.4 20:18:00 10° W 20:20:43 21° WNW 20:20:43 21° WNW
